Weather History for Park Rapids, MN

Change the Weather History Date:

Wednesday, December 4, 2013

  Actual Average Record
Temperature  
Mean Temperature 17 °F -  
Max Temperature 24 °F 25 °F 45 °F (1951)
Min Temperature 10 °F 7 °F -27 °F (1991)
Degree Days  
Heating Degree Days 48    
Moisture  
Dew Point 14 °F    
Average Humidity 88    
Maximum Humidity 93    
Minimum Humidity 84    
Precipitation  
Precipitation 0.21 in - - ()
Sea Level Pressure  
Sea Level Pressure 29.66 in    
Wind  
Wind Speed 11 mph (North)    
Max Wind Speed 17 mph    
Max Gust Speed 18 mph    
Visibility 2 miles    
Events Fog , Snow    
Averages and records for this station are not official NWS values.
T = Trace of Precipitation, MM = Missing Value Source: NWS Daily Summary

Daily Weather History Graph

Daily Weather History Graph

Search for Another Location

Airport:

Trip Planner

Search our weather history database for the weather conditions in past years. The results will help you decide how hot, cold, wet, or windy it might be!

Date:

Astronomy

Dec. 04, 2013 Rise Set
Actual Time 7:48 AM CST 4:32 PM CST
Civil Twilight 7:13 AM CST 5:07 PM CST
Nautical Twilight 6:35 AM CST 5:45 PM CST
Astronomical Twilight 5:58 AM CST 6:22 PM CST
Moon 9:15 AM CST (12/4) 6:47 PM CST (12/4)
Length of Visible Light 9h 53m
Length of Day
8h 43m
Waxing Crescent, 4% of the Moon is Illuminated
Dec 4
Waxing Crescent
Dec 9
First Quarter
Dec 17
Full
Dec 25
Last Quarter
Jan 1
New

Hourly Weather History & Observations

Time (CST) Temp. Windchill Dew Point Humidity Pressure Visibility Wind Dir Wind Speed Gust Speed Precip Events Conditions
12:53 AM 24.1 °F 12.0 °F 21.0 °F 88% 29.88 in 9.0 mi ENE 13.8 mph - 0.00 in Snow Light Snow
1:41 AM 23.0 °F 12.4 °F 21.0 °F 92% 29.81 in 10.0 mi ENE 10.4 mph - 0.00 in   Overcast
1:53 AM 23.0 °F 12.4 °F 21.0 °F 92% 29.87 in 10.0 mi ENE 10.4 mph - 0.00 in   Overcast
2:53 AM 21.9 °F 11.0 °F 19.9 °F 92% 29.87 in 10.0 mi NE 10.4 mph - N/A   Overcast
3:53 AM 19.9 °F 9.3 °F 18.0 °F 92% 29.86 in 5.0 mi NE 9.2 mph - 0.00 in Snow Light Snow
4:07 AM 19.9 °F 9.3 °F 18.0 °F 92% 29.78 in 2.0 mi NE 9.2 mph - 0.00 in Snow Light Snow
4:14 AM 19.9 °F 9.3 °F 18.0 °F 92% 29.77 in 1.8 mi NE 9.2 mph - 0.00 in Snow Light Snow
4:22 AM 19.9 °F 8.6 °F 17.1 °F 89% 29.76 in 1.8 mi NE 10.4 mph - 0.00 in Snow Light Snow
4:53 AM 19.9 °F 10.1 °F 17.1 °F 89% 29.87 in 1.2 mi NE 8.1 mph - 0.01 in Snow Light Snow
5:44 AM 19.0 °F 8.2 °F 17.1 °F 92% 29.79 in 0.8 mi NE 9.2 mph - 0.03 in Snow Light Snow
5:53 AM 19.0 °F 10.0 °F 17.1 °F 92% 29.85 in 0.8 mi NE 6.9 mph - 0.03 in Snow Light Snow
6:04 AM 19.0 °F 7.5 °F 16.0 °F 88% 29.77 in 1.0 mi NE 10.4 mph - 0.01 in Snow Light Snow
6:13 AM 19.0 °F 9.0 °F 16.0 °F 88% 29.76 in 1.0 mi NE 8.1 mph - 0.01 in Snow Light Snow
6:53 AM 19.0 °F 10.0 °F 16.0 °F 88% 29.83 in 1.2 mi NE 6.9 mph - 0.02 in Snow Light Snow
7:53 AM 18.0 °F 5.4 °F 15.1 °F 88% 29.78 in 1.0 mi NE 11.5 mph - 0.01 in Snow Light Snow
8:49 AM 17.6 °F 6.4 °F 15.8 °F 93% 29.72 in 2.0 mi NNE 9.2 mph - 0.01 in Snow Light Snow
8:53 AM 18.0 °F 7.7 °F 15.1 °F 88% 29.79 in 2.0 mi NNE 8.1 mph - 0.01 in Snow Light Snow
9:07 AM 18.0 °F 8.7 °F 15.1 °F 88% 29.71 in 1.2 mi NE 6.9 mph - 0.00 in Snow Light Snow
9:53 AM 18.0 °F 8.7 °F 14.0 °F 84% 29.78 in 0.8 mi NNE 6.9 mph - 0.01 in Snow Light Snow
10:33 AM 19.0 °F 8.2 °F 15.1 °F 85% 29.69 in 1.0 mi NNE 9.2 mph - 0.01 in Snow Light Snow
10:53 AM 19.0 °F 9.0 °F 15.1 °F 85% 29.73 in 1.0 mi NE 8.1 mph 18.4 mph 0.02 in Snow Light Snow
11:03 AM 19.0 °F 9.0 °F 15.1 °F 85% 29.66 in 0.8 mi NNE 8.1 mph 16.1 mph 0.00 in Snow Light Snow
11:53 AM 18.0 °F 6.9 °F 15.1 °F 88% 29.70 in 0.8 mi NNE 9.2 mph - 0.01 in Snow Light Snow
12:53 PM 18.0 °F 4.8 °F 15.1 °F 88% 29.67 in 0.5 mi North 12.7 mph - 0.02 in Fog , Snow Snow
1:03 PM 18.0 °F 5.4 °F 15.1 °F 88% 29.59 in 0.5 mi NNE 11.5 mph - 0.01 in Fog , Snow Snow
1:34 PM 18.0 °F 4.8 °F 15.1 °F 88% 29.57 in 0.5 mi NNE 12.7 mph - 0.02 in Fog , Snow Snow
1:42 PM 18.0 °F 6.1 °F 15.1 °F 88% 29.57 in 0.2 mi NNE 10.4 mph - 0.02 in Fog , Snow Snow
1:53 PM 18.0 °F 6.1 °F 15.1 °F 88% 29.63 in 0.2 mi NNE 10.4 mph - 0.03 in Fog , Snow Snow
2:00 PM 18.0 °F 5.4 °F 15.1 °F 88% 29.56 in 0.2 mi NNE 11.5 mph - 0.00 in Fog , Snow Snow
2:07 PM 18.0 °F 5.4 °F 15.1 °F 88% 29.56 in 0.5 mi NNE 11.5 mph - 0.01 in Fog , Snow Snow
2:45 PM 18.0 °F 6.1 °F 15.1 °F 88% 29.54 in 0.5 mi North 10.4 mph - 0.02 in Fog , Snow Snow
2:53 PM 18.0 °F 6.1 °F 15.1 °F 88% 29.62 in 0.8 mi North 10.4 mph - 0.02 in Snow Light Snow
3:19 PM 18.0 °F 6.9 °F 15.1 °F 88% 29.53 in 1.0 mi North 9.2 mph - 0.00 in Snow Light Snow
3:38 PM 18.0 °F 6.9 °F 15.1 °F 88% 29.52 in 1.8 mi NNE 9.2 mph - 0.01 in Snow Light Snow
3:45 PM 18.0 °F 6.9 °F 15.1 °F 88% 29.54 in 2.5 mi North 9.2 mph - 0.01 in Snow Light Snow
3:53 PM 18.0 °F 6.9 °F 15.1 °F 88% 29.61 in 3.0 mi North 9.2 mph - 0.01 in Snow Light Snow
4:53 PM 18.0 °F 8.7 °F 15.1 °F 88% 29.62 in 2.5 mi NNW 6.9 mph - 0.00 in Snow Light Snow
5:06 PM 18.0 °F 6.1 °F 14.0 °F 84% 29.51 in 1.8 mi North 10.4 mph - 0.00 in Snow Light Snow
5:53 PM 17.1 °F 5.8 °F 15.1 °F 92% 29.59 in 1.5 mi NW 9.2 mph - 0.01 in Snow Light Snow
6:09 PM 17.1 °F 5.0 °F 14.0 °F 88% 29.52 in 2.0 mi NW 10.4 mph - 0.00 in Snow Light Snow
6:40 PM 17.1 °F 3.6 °F 14.0 °F 88% 29.53 in 1.8 mi NW 12.7 mph - 0.00 in Snow Light Snow
6:49 PM 17.6 °F 5.0 °F 14.0 °F 86% 29.52 in 2.0 mi NW 11.5 mph - 0.00 in Snow Light Snow
6:53 PM 17.1 °F 5.0 °F 14.0 °F 88% 29.60 in 2.0 mi NW 10.4 mph - 0.00 in Snow Light Snow
7:04 PM 16.0 °F 2.9 °F 12.9 °F 88% 29.52 in 1.8 mi NW 11.5 mph - 0.00 in Snow Light Snow
7:53 PM 15.1 °F 1.1 °F 12.0 °F 88% 29.60 in 1.5 mi NW 12.7 mph - 0.00 in Snow Light Snow
8:10 PM 15.1 °F 1.1 °F 12.0 °F 88% 29.51 in 2.0 mi NW 12.7 mph - 0.00 in Snow Light Snow
8:32 PM 15.1 °F -0.1 °F 12.0 °F 88% 29.50 in 2.5 mi NW 15.0 mph - 0.00 in Snow Light Snow
8:45 PM 15.1 °F -0.1 °F 12.0 °F 88% 29.51 in 3.0 mi NW 15.0 mph - 0.00 in Snow Light Snow
8:53 PM 15.1 °F -0.1 °F 12.0 °F 88% 29.61 in 3.0 mi WNW 15.0 mph - 0.00 in Snow Light Snow
9:29 PM 14.0 °F -0.8 °F 10.0 °F 84% 29.54 in 2.5 mi WNW 13.8 mph - 0.00 in Snow Light Snow
9:48 PM 12.2 °F -4.3 °F 8.6 °F 85% 29.55 in 3.0 mi WNW 16.1 mph - 0.00 in Snow Light Snow
9:53 PM 12.9 °F -2.8 °F 9.0 °F 84% 29.63 in 3.0 mi WNW 15.0 mph - 0.00 in Snow Light Snow
10:33 PM 12.0 °F -4.5 °F 8.1 °F 84% 29.55 in 4.0 mi WNW 16.1 mph - 0.00 in Snow Light Snow
10:53 PM 12.0 °F -4.0 °F 8.1 °F 84% 29.65 in 3.0 mi WNW 15.0 mph - 0.00 in Snow Light Snow
11:17 PM 10.9 °F -6.5 °F 7.0 °F 84% 29.56 in 2.5 mi WNW 17.3 mph - 0.00 in Snow Light Snow
11:39 PM 10.9 °F -6.5 °F 7.0 °F 84% 29.57 in 2.0 mi WNW 17.3 mph - 0.00 in Snow Light Snow
11:53 PM 10.0 °F -7.6 °F 7.0 °F 87% 29.67 in 2.5 mi WNW 17.3 mph - 0.00 in Snow Light Snow